Year,Month,Day,Hour,Minute,Value (Times are PST for temperature in C)
2021,06,29,00,00,27.90
2021,06,29,00,01,27.90
2021,06,29,00,02,27.90
2021,06,29,00,03,27.80
2021,06,29,00,04,27.80
2021,06,29,00,05,27.80
2021,06,29,00,06,27.80
2021,06,29,00,07,27.70
2021,06,29,00,08,27.70
2021,06,29,00,09,27.70
2021,06,29,00,10,27.70
2021,06,29,00,11,27.70
2021,06,29,00,12,27.60
2021,06,29,00,13,27.60
2021,06,29,00,14,27.60
2021,06,29,00,15,27.60
2021,06,29,00,16,27.60
2021,06,29,00,17,27.60
2021,06,29,00,18,27.60
2021,06,29,00,19,27.50
2021,06,29,00,20,27.40
2021,06,29,00,21,27.40
2021,06,29,00,22,27.40
2021,06,29,00,23,27.40
2021,06,29,00,24,27.40
2021,06,29,00,25,27.40
2021,06,29,00,26,27.40
2021,06,29,00,27,27.40
2021,06,29,00,28,27.40
2021,06,29,00,29,27.30
2021,06,29,00,30,27.30
2021,06,29,00,31,27.30
2021,06,29,00,32,27.30
2021,06,29,00,33,27.30
2021,06,29,00,34,27.30
2021,06,29,00,35,27.30
2021,06,29,00,36,27.30
2021,06,29,00,37,27.30
2021,06,29,00,38,27.30
2021,06,29,00,39,27.30
2021,06,29,00,40,27.30
2021,06,29,00,41,27.30
2021,06,29,00,42,27.30
2021,06,29,00,43,27.30
2021,06,29,00,44,27.30
2021,06,29,00,45,27.30
2021,06,29,00,46,27.20
2021,06,29,00,47,27.20
2021,06,29,00,48,27.20
2021,06,29,00,49,27.20
2021,06,29,00,50,27.20
2021,06,29,00,51,27.10
2021,06,29,00,52,27.10
2021,06,29,00,53,27.10
2021,06,29,00,54,27.10
2021,06,29,00,55,26.90
2021,06,29,00,56,26.90
2021,06,29,00,57,26.90
2021,06,29,00,58,26.90
2021,06,29,00,59,26.80
2021,06,29,01,00,26.80
2021,06,29,01,01,26.80
2021,06,29,01,02,26.80
2021,06,29,01,03,26.80
2021,06,29,01,04,26.70
2021,06,29,01,05,26.70
2021,06,29,01,06,26.70
2021,06,29,01,07,26.60
2021,06,29,01,08,26.60
2021,06,29,01,09,26.60
2021,06,29,01,10,26.60
2021,06,29,01,11,26.60
2021,06,29,01,12,26.60
2021,06,29,01,13,26.60
2021,06,29,01,14,26.50
2021,06,29,01,15,26.40
2021,06,29,01,16,26.40
2021,06,29,01,17,26.40
2021,06,29,01,18,26.40
2021,06,29,01,19,26.40
2021,06,29,01,20,26.40
2021,06,29,01,21,26.30
2021,06,29,01,22,26.30
2021,06,29,01,23,26.30
2021,06,29,01,24,26.30
2021,06,29,01,25,26.20
2021,06,29,01,26,26.20
2021,06,29,01,27,26.20
2021,06,29,01,28,26.10
2021,06,29,01,29,26.10
2021,06,29,01,30,26.10
2021,06,29,01,31,26.10
2021,06,29,01,32,26.00
2021,06,29,01,33,26.00
2021,06,29,01,34,26.00
2021,06,29,01,35,26.00
2021,06,29,01,36,26.00
2021,06,29,01,37,26.00
2021,06,29,01,38,26.00
2021,06,29,01,39,25.90
2021,06,29,01,40,25.90
2021,06,29,01,41,25.90
2021,06,29,01,42,25.90
2021,06,29,01,43,25.90
2021,06,29,01,44,25.90
2021,06,29,01,45,25.90
2021,06,29,01,46,25.90
2021,06,29,01,47,25.90
2021,06,29,01,48,25.90
2021,06,29,01,49,25.90
2021,06,29,01,50,25.80
2021,06,29,01,51,25.80
2021,06,29,01,52,25.80
2021,06,29,01,53,25.80
2021,06,29,01,54,25.80
2021,06,29,01,55,25.80
2021,06,29,01,56,25.80
2021,06,29,01,57,25.80
2021,06,29,01,58,25.80
2021,06,29,01,59,25.80
2021,06,29,02,00,25.80
2021,06,29,02,01,25.80
2021,06,29,02,02,25.80
2021,06,29,02,03,25.80
2021,06,29,02,04,25.80
2021,06,29,02,05,25.80
2021,06,29,02,06,25.80
2021,06,29,02,07,25.80
2021,06,29,02,08,25.80
2021,06,29,02,09,25.70
2021,06,29,02,10,25.70
2021,06,29,02,11,25.70
2021,06,29,02,12,25.70
2021,06,29,02,13,25.70
2021,06,29,02,14,25.70
2021,06,29,02,15,25.60
2021,06,29,02,16,25.60
2021,06,29,02,17,25.60
2021,06,29,02,18,25.60
2021,06,29,02,19,25.60
2021,06,29,02,20,25.60
2021,06,29,02,21,25.60
2021,06,29,02,22,25.50
2021,06,29,02,23,25.50
2021,06,29,02,24,25.50
2021,06,29,02,25,25.50
2021,06,29,02,26,25.50
2021,06,29,02,27,25.50
2021,06,29,02,28,25.50
2021,06,29,02,29,25.50
2021,06,29,02,30,25.50
2021,06,29,02,31,25.40
2021,06,29,02,32,25.40
2021,06,29,02,33,25.40
2021,06,29,02,34,25.40
2021,06,29,02,35,25.40
2021,06,29,02,36,25.40
2021,06,29,02,37,25.30
2021,06,29,02,38,25.30
2021,06,29,02,39,25.30
2021,06,29,02,40,25.30
2021,06,29,02,41,25.30
2021,06,29,02,42,25.30
2021,06,29,02,43,25.30
2021,06,29,02,44,25.30
2021,06,29,02,45,25.30
2021,06,29,02,46,25.30
2021,06,29,02,47,25.20
2021,06,29,02,48,25.20
2021,06,29,02,49,25.20
2021,06,29,02,50,25.20
2021,06,29,02,51,25.20
2021,06,29,02,52,25.20
2021,06,29,02,53,25.10
2021,06,29,02,54,25.10
2021,06,29,02,55,25.10
2021,06,29,02,56,25.10
2021,06,29,02,57,25.10
2021,06,29,02,58,25.10
2021,06,29,02,59,25.00
2021,06,29,03,00,25.00
2021,06,29,03,01,25.00
2021,06,29,03,02,25.00
2021,06,29,03,03,25.00
2021,06,29,03,04,25.00
2021,06,29,03,05,24.90
2021,06,29,03,06,24.90
2021,06,29,03,07,24.90
2021,06,29,03,08,24.90
2021,06,29,03,09,24.90
2021,06,29,03,10,24.90
2021,06,29,03,11,24.90
2021,06,29,03,12,24.90
2021,06,29,03,13,24.90
2021,06,29,03,14,24.80
2021,06,29,03,15,24.80
2021,06,29,03,16,24.80
2021,06,29,03,17,24.80
2021,06,29,03,18,24.80
2021,06,29,03,19,24.80
2021,06,29,03,20,24.80
2021,06,29,03,21,24.70
2021,06,29,03,22,24.70
2021,06,29,03,23,24.70
2021,06,29,03,24,24.70
2021,06,29,03,25,24.70
2021,06,29,03,26,24.60
2021,06,29,03,27,24.60
2021,06,29,03,28,24.60
2021,06,29,03,29,24.60
2021,06,29,03,30,24.60
2021,06,29,03,31,24.60
2021,06,29,03,32,24.50
2021,06,29,03,33,24.50
2021,06,29,03,34,24.50
2021,06,29,03,35,24.50
2021,06,29,03,36,24.50
2021,06,29,03,37,24.50
2021,06,29,03,38,24.40
2021,06,29,03,39,24.40
2021,06,29,03,40,24.40
2021,06,29,03,41,24.40
2021,06,29,03,42,24.40
2021,06,29,03,43,24.40
2021,06,29,03,44,24.30
2021,06,29,03,45,24.30
2021,06,29,03,46,24.30
2021,06,29,03,47,24.30
2021,06,29,03,48,24.20
2021,06,29,03,49,24.20
2021,06,29,03,50,24.20
2021,06,29,03,51,24.20
2021,06,29,03,52,24.10
2021,06,29,03,53,24.10
2021,06,29,03,54,24.10
2021,06,29,03,55,24.10
2021,06,29,03,56,24.10
2021,06,29,03,57,24.10
2021,06,29,03,58,24.10
2021,06,29,03,59,24.10
2021,06,29,04,00,24.10
2021,06,29,04,01,24.00
2021,06,29,04,02,23.90
2021,06,29,04,03,23.90
2021,06,29,04,04,23.90
2021,06,29,04,05,23.90
2021,06,29,04,06,23.90
2021,06,29,04,07,23.90
2021,06,29,04,08,23.90
2021,06,29,04,09,23.90
2021,06,29,04,10,23.90
2021,06,29,04,11,23.80
2021,06,29,04,12,23.80
2021,06,29,04,13,23.80
2021,06,29,04,14,23.80
2021,06,29,04,15,23.80
2021,06,29,04,16,23.80
2021,06,29,04,17,23.80
2021,06,29,04,18,23.80
2021,06,29,04,19,23.70
2021,06,29,04,20,23.70
2021,06,29,04,21,23.70
2021,06,29,04,22,23.70
2021,06,29,04,23,23.70
2021,06,29,04,24,23.70
2021,06,29,04,25,23.70
2021,06,29,04,26,23.70
2021,06,29,04,27,23.70
2021,06,29,04,28,23.70
2021,06,29,04,29,23.70
2021,06,29,04,30,23.60
2021,06,29,04,31,23.60
2021,06,29,04,32,23.60
2021,06,29,04,33,23.60
2021,06,29,04,34,23.50
2021,06,29,04,35,23.50
2021,06,29,04,36,23.40
2021,06,29,04,37,23.40
2021,06,29,04,38,23.40
2021,06,29,04,39,23.40
2021,06,29,04,40,23.40
2021,06,29,04,41,23.40
2021,06,29,04,42,23.40
2021,06,29,04,43,23.40
2021,06,29,04,44,23.40
2021,06,29,04,45,23.40
2021,06,29,04,46,23.40
2021,06,29,04,47,23.40
2021,06,29,04,48,23.40
2021,06,29,04,49,23.40
2021,06,29,04,50,23.40
2021,06,29,04,51,23.40
2021,06,29,04,52,23.50
2021,06,29,04,53,23.60
2021,06,29,04,54,23.60
2021,06,29,04,55,23.60
2021,06,29,04,56,23.50
2021,06,29,04,57,23.40
2021,06,29,04,58,23.40
2021,06,29,04,59,23.40
2021,06,29,05,00,23.40
2021,06,29,05,01,23.40
2021,06,29,05,02,23.40
2021,06,29,05,03,23.40
2021,06,29,05,04,23.40
2021,06,29,05,05,23.40
2021,06,29,05,06,23.30
2021,06,29,05,07,23.30
2021,06,29,05,08,23.30
2021,06,29,05,09,23.30
2021,06,29,05,10,23.30
2021,06,29,05,11,23.30
2021,06,29,05,12,23.30
2021,06,29,05,13,23.30
2021,06,29,05,14,23.30
2021,06,29,05,15,23.30
2021,06,29,05,16,23.20
2021,06,29,05,17,23.20
2021,06,29,05,18,23.20
2021,06,29,05,19,23.20
2021,06,29,05,20,23.20
2021,06,29,05,21,23.20
2021,06,29,05,22,23.10
2021,06,29,05,23,23.10
2021,06,29,05,24,23.10
2021,06,29,05,25,23.10
2021,06,29,05,26,23.10
2021,06,29,05,27,23.10
2021,06,29,05,28,23.10
2021,06,29,05,29,23.10
2021,06,29,05,30,23.00
2021,06,29,05,31,22.90
2021,06,29,05,32,22.90
2021,06,29,05,33,22.90
2021,06,29,05,34,22.90
2021,06,29,05,35,22.90
2021,06,29,05,36,22.90
2021,06,29,05,37,22.90
2021,06,29,05,38,22.90
2021,06,29,05,39,22.90
2021,06,29,05,40,22.90
2021,06,29,05,41,22.90
2021,06,29,05,42,22.90
2021,06,29,05,43,22.90
2021,06,29,05,44,22.90
2021,06,29,05,45,22.90
2021,06,29,05,46,22.80
2021,06,29,05,47,22.80
2021,06,29,05,48,22.80
2021,06,29,05,49,22.80
2021,06,29,05,50,22.80
2021,06,29,05,51,22.80
2021,06,29,05,52,22.80
2021,06,29,05,53,22.80
2021,06,29,05,54,22.80
2021,06,29,05,55,22.80
2021,06,29,05,56,22.80
2021,06,29,05,57,22.80
2021,06,29,05,58,22.80
2021,06,29,05,59,22.80
2021,06,29,06,00,22.80
2021,06,29,06,01,22.90
2021,06,29,06,02,22.90
2021,06,29,06,03,22.90
2021,06,29,06,04,22.90
2021,06,29,06,05,22.90
2021,06,29,06,06,22.90
2021,06,29,06,07,23.00
2021,06,29,06,08,23.10
2021,06,29,06,09,23.10
2021,06,29,06,10,23.20
2021,06,29,06,11,23.20
2021,06,29,06,12,23.30
2021,06,29,06,13,23.30
2021,06,29,06,14,23.30
2021,06,29,06,15,23.40
2021,06,29,06,16,23.40
2021,06,29,06,17,23.40
2021,06,29,06,18,23.50
2021,06,29,06,19,23.60
2021,06,29,06,20,23.60
2021,06,29,06,21,23.70
2021,06,29,06,22,23.70
2021,06,29,06,23,23.70
2021,06,29,06,24,23.70
2021,06,29,06,25,23.70
2021,06,29,06,26,23.70
2021,06,29,06,27,23.70
2021,06,29,06,28,23.70
2021,06,29,06,29,23.70
2021,06,29,06,30,23.70
2021,06,29,06,31,23.60
2021,06,29,06,32,23.60
2021,06,29,06,33,23.60
2021,06,29,06,34,23.40
2021,06,29,06,35,23.40
2021,06,29,06,36,23.30
2021,06,29,06,37,23.20
2021,06,29,06,38,23.10
2021,06,29,06,39,23.00
2021,06,29,06,40,22.90
2021,06,29,06,41,22.90
2021,06,29,06,42,22.80
2021,06,29,06,43,22.80
2021,06,29,06,44,22.80
2021,06,29,06,45,22.70
2021,06,29,06,46,22.70
2021,06,29,06,47,22.70
2021,06,29,06,48,22.70
2021,06,29,06,49,22.70
2021,06,29,06,50,22.70
2021,06,29,06,51,22.60
2021,06,29,06,52,22.60
2021,06,29,06,53,22.60
2021,06,29,06,54,22.60
2021,06,29,06,55,22.70
2021,06,29,06,56,22.70
2021,06,29,06,57,22.70
2021,06,29,06,58,22.80
2021,06,29,06,59,22.80
2021,06,29,07,00,22.90
2021,06,29,07,01,22.90
2021,06,29,07,02,22.90
2021,06,29,07,03,22.90
2021,06,29,07,04,23.00
2021,06,29,07,05,23.10
2021,06,29,07,06,23.10
2021,06,29,07,07,23.10
2021,06,29,07,08,23.10
2021,06,29,07,09,23.00
2021,06,29,07,10,22.90
2021,06,29,07,11,22.90
2021,06,29,07,12,22.90
2021,06,29,07,13,22.90
2021,06,29,07,14,23.00
2021,06,29,07,15,23.10
2021,06,29,07,16,23.10
2021,06,29,07,17,23.20
2021,06,29,07,18,23.20
2021,06,29,07,19,23.20
2021,06,29,07,20,23.10
2021,06,29,07,21,23.10
2021,06,29,07,22,23.10
2021,06,29,07,23,23.10
2021,06,29,07,24,23.10
2021,06,29,07,25,23.10
2021,06,29,07,26,23.10
2021,06,29,07,27,23.20
2021,06,29,07,28,23.20
2021,06,29,07,29,23.20
2021,06,29,07,30,23.20
2021,06,29,07,31,23.20
2021,06,29,07,32,23.30
2021,06,29,07,33,23.30
2021,06,29,07,34,23.30
2021,06,29,07,35,23.30
2021,06,29,07,36,23.30
2021,06,29,07,37,23.30
2021,06,29,07,38,23.30
2021,06,29,07,39,23.30
2021,06,29,07,40,23.30
2021,06,29,07,41,23.40
2021,06,29,07,42,23.40
2021,06,29,07,43,23.40
2021,06,29,07,44,23.30
2021,06,29,07,45,23.30
2021,06,29,07,46,23.30
2021,06,29,07,47,23.40
2021,06,29,07,48,23.40
2021,06,29,07,49,23.40
2021,06,29,07,50,23.40
2021,06,29,07,51,23.30
2021,06,29,07,52,23.30
2021,06,29,07,53,23.20
2021,06,29,07,54,23.10
2021,06,29,07,55,23.00
2021,06,29,07,56,22.90
2021,06,29,07,57,22.90
2021,06,29,07,58,22.90
2021,06,29,07,59,22.90
2021,06,29,08,00,22.80
2021,06,29,08,01,22.80
2021,06,29,08,02,22.90
2021,06,29,08,03,22.90
2021,06,29,08,04,22.90
2021,06,29,08,05,23.00
2021,06,29,08,06,23.10
2021,06,29,08,07,23.20
2021,06,29,08,08,23.20
2021,06,29,08,09,23.30
2021,06,29,08,10,23.30
2021,06,29,08,11,23.40
2021,06,29,08,12,23.50
2021,06,29,08,13,23.60
2021,06,29,08,14,23.60
2021,06,29,08,15,23.70
2021,06,29,08,16,23.70
2021,06,29,08,17,23.70
2021,06,29,08,18,23.70
2021,06,29,08,19,23.70
2021,06,29,08,20,23.70
2021,06,29,08,21,23.70
2021,06,29,08,22,23.80
2021,06,29,08,23,23.90
2021,06,29,08,24,23.90
2021,06,29,08,25,23.90
2021,06,29,08,26,24.00
2021,06,29,08,27,24.10
2021,06,29,08,28,24.10
2021,06,29,08,29,24.10
2021,06,29,08,30,24.10
2021,06,29,08,31,24.00
2021,06,29,08,32,23.90
2021,06,29,08,33,23.80
2021,06,29,08,34,23.80
2021,06,29,08,35,23.90
2021,06,29,08,36,23.90
2021,06,29,08,37,24.00
2021,06,29,08,38,24.10
2021,06,29,08,39,24.10
2021,06,29,08,40,24.10
2021,06,29,08,41,24.10
2021,06,29,08,42,24.10
2021,06,29,08,43,24.00
2021,06,29,08,44,23.70
2021,06,29,08,45,23.40
2021,06,29,08,46,23.30
2021,06,29,08,47,23.30
2021,06,29,08,48,23.30
2021,06,29,08,49,23.30
2021,06,29,08,50,23.30
2021,06,29,08,51,23.30
2021,06,29,08,52,23.30
2021,06,29,08,53,23.30
2021,06,29,08,54,23.30
2021,06,29,08,55,23.30
2021,06,29,08,56,23.20
2021,06,29,08,57,23.30
2021,06,29,08,58,23.30
2021,06,29,08,59,23.40
2021,06,29,09,00,23.40
2021,06,29,09,01,23.60
2021,06,29,09,02,23.70
2021,06,29,09,03,23.90
2021,06,29,09,04,24.00
2021,06,29,09,05,24.20
2021,06,29,09,06,24.30
2021,06,29,09,07,24.40
2021,06,29,09,08,24.50
2021,06,29,09,09,24.50
2021,06,29,09,10,24.60
2021,06,29,09,11,24.70
2021,06,29,09,12,24.70
2021,06,29,09,13,24.80
2021,06,29,09,14,24.90
2021,06,29,09,15,25.00
2021,06,29,09,16,25.10
2021,06,29,09,17,25.10
2021,06,29,09,18,25.10
2021,06,29,09,19,25.10
2021,06,29,09,20,25.10
2021,06,29,09,21,25.10
2021,06,29,09,22,25.10
2021,06,29,09,23,25.10
2021,06,29,09,24,25.10
2021,06,29,09,25,25.10
2021,06,29,09,26,25.10
2021,06,29,09,27,25.10
2021,06,29,09,28,25.20
2021,06,29,09,29,25.30
2021,06,29,09,30,25.30
2021,06,29,09,31,25.30
2021,06,29,09,32,25.30
2021,06,29,09,33,25.30
2021,06,29,09,34,25.30
2021,06,29,09,35,25.20
2021,06,29,09,36,25.20
2021,06,29,09,37,25.20
2021,06,29,09,38,25.20
2021,06,29,09,39,25.20
2021,06,29,09,40,25.20
2021,06,29,09,41,25.30
2021,06,29,09,42,25.40
2021,06,29,09,43,25.40
2021,06,29,09,44,25.50
2021,06,29,09,45,25.60
2021,06,29,09,46,25.70
2021,06,29,09,47,25.80
2021,06,29,09,48,25.90
2021,06,29,09,49,26.00
2021,06,29,09,50,26.10
2021,06,29,09,51,26.30
2021,06,29,09,52,26.40
2021,06,29,09,53,26.40
2021,06,29,09,54,26.40
2021,06,29,09,55,26.50
2021,06,29,09,56,26.60
2021,06,29,09,57,26.60
2021,06,29,09,58,26.60
2021,06,29,09,59,26.60
2021,06,29,10,00,26.60
2021,06,29,10,01,26.60
2021,06,29,10,02,26.70
2021,06,29,10,03,26.80
2021,06,29,10,04,26.80
2021,06,29,10,05,26.80
2021,06,29,10,06,26.80
2021,06,29,10,07,26.80
2021,06,29,10,08,26.80
2021,06,29,10,09,26.80
2021,06,29,10,10,26.80
2021,06,29,10,11,26.90
2021,06,29,10,12,26.90
2021,06,29,10,13,26.90
2021,06,29,10,14,26.90
2021,06,29,10,15,26.90
2021,06,29,10,16,27.00
2021,06,29,10,17,27.10
2021,06,29,10,18,27.20
2021,06,29,10,19,27.30
2021,06,29,10,20,27.30
2021,06,29,10,21,27.30
2021,06,29,10,22,27.30
2021,06,29,10,23,27.30
2021,06,29,10,24,27.30
2021,06,29,10,25,27.20
2021,06,29,10,26,27.00
2021,06,29,10,27,26.80
2021,06,29,10,28,26.70
2021,06,29,10,29,26.50
2021,06,29,10,30,26.40
2021,06,29,10,31,26.40
2021,06,29,10,32,26.50
2021,06,29,10,33,26.60
2021,06,29,10,34,26.60
2021,06,29,10,35,26.80
2021,06,29,10,36,26.90
2021,06,29,10,37,26.90
2021,06,29,10,38,26.80
2021,06,29,10,39,26.70
2021,06,29,10,40,26.50
2021,06,29,10,41,26.40
2021,06,29,10,42,26.30
2021,06,29,10,43,26.30
2021,06,29,10,44,26.30
2021,06,29,10,45,26.30
2021,06,29,10,46,26.30
2021,06,29,10,47,26.30
2021,06,29,10,48,26.30
2021,06,29,10,49,26.30
2021,06,29,10,50,26.30
2021,06,29,10,51,26.20
2021,06,29,10,52,26.30
2021,06,29,10,53,26.40
2021,06,29,10,54,26.50
2021,06,29,10,55,26.60
2021,06,29,10,56,26.60
2021,06,29,10,57,26.70
2021,06,29,10,58,26.70
2021,06,29,10,59,26.80
2021,06,29,11,00,26.80
2021,06,29,11,01,26.70
2021,06,29,11,02,26.70
2021,06,29,11,03,26.80
2021,06,29,11,04,26.80
2021,06,29,11,05,26.80
2021,06,29,11,06,26.80
2021,06,29,11,07,26.80
2021,06,29,11,08,26.80
2021,06,29,11,09,26.90
2021,06,29,11,10,27.10
2021,06,29,11,11,27.20
2021,06,29,11,12,27.30
2021,06,29,11,13,27.40
2021,06,29,11,14,27.60
2021,06,29,11,15,27.70
2021,06,29,11,16,27.80
2021,06,29,11,17,27.70
2021,06,29,11,18,27.70
2021,06,29,11,19,27.70
2021,06,29,11,20,27.50
2021,06,29,11,21,27.40
2021,06,29,11,22,27.30
2021,06,29,11,23,27.30
2021,06,29,11,24,27.30
2021,06,29,11,25,27.30
2021,06,29,11,26,27.40
2021,06,29,11,27,27.60
2021,06,29,11,28,27.60
2021,06,29,11,29,27.60
2021,06,29,11,30,27.60
2021,06,29,11,31,27.60
2021,06,29,11,32,27.70
2021,06,29,11,33,27.90
2021,06,29,11,34,28.10
2021,06,29,11,35,28.40
2021,06,29,11,36,28.60
2021,06,29,11,37,28.70
2021,06,29,11,38,28.70
2021,06,29,11,39,28.80
2021,06,29,11,40,28.80
2021,06,29,11,41,28.90
2021,06,29,11,42,28.80
2021,06,29,11,43,28.80
2021,06,29,11,44,28.80
2021,06,29,11,45,28.90
2021,06,29,11,46,28.90
2021,06,29,11,47,29.00
2021,06,29,11,48,29.10
2021,06,29,11,49,29.20
2021,06,29,11,50,29.30
2021,06,29,11,51,29.30
2021,06,29,11,52,29.30
2021,06,29,11,53,29.30
2021,06,29,11,54,29.30
2021,06,29,11,55,29.40
2021,06,29,11,56,29.50
2021,06,29,11,57,29.50
2021,06,29,11,58,29.60
2021,06,29,11,59,29.70
2021,06,29,12,00,29.80
2021,06,29,12,01,29.90
2021,06,29,12,02,29.90
2021,06,29,12,03,29.80
2021,06,29,12,04,29.50
2021,06,29,12,05,29.30
2021,06,29,12,06,29.10
2021,06,29,12,07,29.10
2021,06,29,12,08,29.00
2021,06,29,12,09,28.90
2021,06,29,12,10,29.00
2021,06,29,12,11,29.10
2021,06,29,12,12,29.20
2021,06,29,12,13,29.20
2021,06,29,12,14,29.30
2021,06,29,12,15,29.40
2021,06,29,12,16,29.50
2021,06,29,12,17,29.50
2021,06,29,12,18,29.50
2021,06,29,12,19,29.40
2021,06,29,12,20,29.20
2021,06,29,12,21,29.10
2021,06,29,12,22,29.10
2021,06,29,12,23,29.00
2021,06,29,12,24,28.90
2021,06,29,12,25,29.10
2021,06,29,12,26,29.10
2021,06,29,12,27,29.10
2021,06,29,12,28,29.10
2021,06,29,12,29,29.00
2021,06,29,12,30,29.00
2021,06,29,12,31,29.10
2021,06,29,12,32,29.10
2021,06,29,12,33,29.10
2021,06,29,12,34,28.90
2021,06,29,12,35,28.90
2021,06,29,12,36,28.90
2021,06,29,12,37,29.00
2021,06,29,12,38,29.00
2021,06,29,12,39,29.00
2021,06,29,12,40,29.10
2021,06,29,12,41,29.10
2021,06,29,12,42,28.90
2021,06,29,12,43,28.80
2021,06,29,12,44,28.70
2021,06,29,12,45,28.50
2021,06,29,12,46,28.60
2021,06,29,12,47,28.60
2021,06,29,12,48,28.70
2021,06,29,12,49,28.80
2021,06,29,12,50,28.80
2021,06,29,12,51,28.80
2021,06,29,12,52,28.70
2021,06,29,12,53,28.60
2021,06,29,12,54,28.50
2021,06,29,12,55,28.40
2021,06,29,12,56,28.40
2021,06,29,12,57,28.30
2021,06,29,12,58,28.30
2021,06,29,12,59,28.30
2021,06,29,13,00,28.40
2021,06,29,13,01,28.40
2021,06,29,13,02,28.30
2021,06,29,13,03,28.20
2021,06,29,13,04,28.20
2021,06,29,13,05,28.30
2021,06,29,13,06,28.20
2021,06,29,13,07,28.10
2021,06,29,13,08,28.10
2021,06,29,13,09,28.10
2021,06,29,13,10,28.10
2021,06,29,13,11,28.20
2021,06,29,13,12,28.20
2021,06,29,13,13,28.20
2021,06,29,13,14,28.20
2021,06,29,13,15,28.10
2021,06,29,13,16,28.10
2021,06,29,13,17,28.10
2021,06,29,13,18,28.20
2021,06,29,13,19,28.30
2021,06,29,13,20,28.30
2021,06,29,13,21,28.40
2021,06,29,13,22,28.50
2021,06,29,13,23,28.60
2021,06,29,13,24,28.70
2021,06,29,13,25,28.80
2021,06,29,13,26,28.80
2021,06,29,13,27,28.80
2021,06,29,13,28,28.90
2021,06,29,13,29,29.00
2021,06,29,13,30,29.10
2021,06,29,13,31,29.20
2021,06,29,13,32,29.30
2021,06,29,13,33,29.40
2021,06,29,13,34,29.50
2021,06,29,13,35,29.60
2021,06,29,13,36,29.60
2021,06,29,13,37,29.60
2021,06,29,13,38,29.50
2021,06,29,13,39,29.30
2021,06,29,13,40,29.10
2021,06,29,13,41,29.00
2021,06,29,13,42,28.90
2021,06,29,13,43,28.90
2021,06,29,13,44,28.90
2021,06,29,13,45,28.90
2021,06,29,13,46,28.90
2021,06,29,13,47,29.00
2021,06,29,13,48,29.10
2021,06,29,13,49,29.10
2021,06,29,13,50,29.00
2021,06,29,13,51,28.90
2021,06,29,13,52,28.90
2021,06,29,13,53,28.90
2021,06,29,13,54,28.90
2021,06,29,13,55,28.90
2021,06,29,13,56,28.90
2021,06,29,13,57,28.90
2021,06,29,13,58,28.90
2021,06,29,13,59,28.90
2021,06,29,14,00,29.00
2021,06,29,14,01,29.10
2021,06,29,14,02,29.20
2021,06,29,14,03,29.30
2021,06,29,14,04,29.40
2021,06,29,14,05,29.30
2021,06,29,14,06,29.30
2021,06,29,14,07,29.40
2021,06,29,14,08,29.40
2021,06,29,14,09,29.50
2021,06,29,14,10,29.50
2021,06,29,14,11,29.60
2021,06,29,14,12,29.60
2021,06,29,14,13,29.60
2021,06,29,14,14,29.50
2021,06,29,14,15,29.60
2021,06,29,14,16,29.50
2021,06,29,14,17,29.50
2021,06,29,14,18,29.50
2021,06,29,14,19,29.50
2021,06,29,14,20,29.50
2021,06,29,14,21,29.60
2021,06,29,14,22,29.70
2021,06,29,14,23,29.60
2021,06,29,14,24,29.60
2021,06,29,14,25,29.60
2021,06,29,14,26,29.70
2021,06,29,14,27,29.80
2021,06,29,14,28,29.90
2021,06,29,14,29,30.10
2021,06,29,14,30,30.20
2021,06,29,14,31,30.20
2021,06,29,14,32,30.10
2021,06,29,14,33,29.90
2021,06,29,14,34,29.90
2021,06,29,14,35,29.90
2021,06,29,14,36,29.80
2021,06,29,14,37,29.60
2021,06,29,14,38,29.50
2021,06,29,14,39,29.40
2021,06,29,14,40,29.30
2021,06,29,14,41,29.30
2021,06,29,14,42,29.40
2021,06,29,14,43,29.50
2021,06,29,14,44,29.70
2021,06,29,14,45,29.80
2021,06,29,14,46,29.90
2021,06,29,14,47,30.00
2021,06,29,14,48,30.00
2021,06,29,14,49,29.90
2021,06,29,14,50,29.80
2021,06,29,14,51,29.70
2021,06,29,14,52,29.50
2021,06,29,14,53,29.60
2021,06,29,14,54,29.70
2021,06,29,14,55,29.70
2021,06,29,14,56,29.70
2021,06,29,14,57,29.70
2021,06,29,14,58,29.70
2021,06,29,14,59,29.70
2021,06,29,15,00,29.70
2021,06,29,15,01,29.70
2021,06,29,15,02,29.70
2021,06,29,15,03,29.70
2021,06,29,15,04,29.70
2021,06,29,15,05,29.60
2021,06,29,15,06,29.50
2021,06,29,15,07,29.50
2021,06,29,15,08,29.50
2021,06,29,15,09,29.50
2021,06,29,15,10,29.60
2021,06,29,15,11,29.70
2021,06,29,15,12,29.80
2021,06,29,15,13,29.90
2021,06,29,15,14,29.90
2021,06,29,15,15,29.80
2021,06,29,15,16,29.60
2021,06,29,15,17,29.50
2021,06,29,15,18,29.50
2021,06,29,15,19,29.50
2021,06,29,15,20,29.60
2021,06,29,15,21,29.70
2021,06,29,15,22,29.60
2021,06,29,15,23,29.50
2021,06,29,15,24,29.50
2021,06,29,15,25,29.50
2021,06,29,15,26,29.50
2021,06,29,15,27,29.60
2021,06,29,15,28,29.70
2021,06,29,15,29,29.70
2021,06,29,15,30,29.60
2021,06,29,15,31,29.50
2021,06,29,15,32,29.50
2021,06,29,15,33,29.50
2021,06,29,15,34,29.50
2021,06,29,15,35,29.40
2021,06,29,15,36,29.30
2021,06,29,15,37,29.20
2021,06,29,15,38,29.20
2021,06,29,15,39,29.20
2021,06,29,15,40,29.20
2021,06,29,15,41,29.30
2021,06,29,15,42,29.30
2021,06,29,15,43,29.30
2021,06,29,15,44,29.30
2021,06,29,15,45,29.30
2021,06,29,15,46,29.30
2021,06,29,15,47,29.40
2021,06,29,15,48,29.50
2021,06,29,15,49,29.60
2021,06,29,15,50,29.70
2021,06,29,15,51,29.70
2021,06,29,15,52,29.70
2021,06,29,15,53,29.60
2021,06,29,15,54,29.40
2021,06,29,15,55,29.30
2021,06,29,15,56,29.20
2021,06,29,15,57,29.10
2021,06,29,15,58,29.00
2021,06,29,15,59,28.90
2021,06,29,16,00,28.90
2021,06,29,16,01,29.10
2021,06,29,16,02,29.20
2021,06,29,16,03,29.40
2021,06,29,16,04,29.40
2021,06,29,16,05,29.30
2021,06,29,16,06,29.20
2021,06,29,16,07,29.10
2021,06,29,16,08,29.00
2021,06,29,16,09,28.90
2021,06,29,16,10,28.90
2021,06,29,16,11,28.90
2021,06,29,16,12,28.90
2021,06,29,16,13,29.00
2021,06,29,16,14,29.10
2021,06,29,16,15,29.30
2021,06,29,16,16,29.40
2021,06,29,16,17,29.50
2021,06,29,16,18,29.70
2021,06,29,16,19,29.80
2021,06,29,16,20,29.80
2021,06,29,16,21,29.80
2021,06,29,16,22,29.60
2021,06,29,16,23,29.60
2021,06,29,16,24,29.60
2021,06,29,16,25,29.70
2021,06,29,16,26,29.70
2021,06,29,16,27,29.80
2021,06,29,16,28,29.80
2021,06,29,16,29,29.80
2021,06,29,16,30,29.80
2021,06,29,16,31,29.80
2021,06,29,16,32,29.90
2021,06,29,16,33,29.90
2021,06,29,16,34,29.90
2021,06,29,16,35,29.90
2021,06,29,16,36,29.70
2021,06,29,16,37,29.50
2021,06,29,16,38,29.40
2021,06,29,16,39,29.10
2021,06,29,16,40,29.10
2021,06,29,16,41,29.00
2021,06,29,16,42,28.90
2021,06,29,16,43,28.90
2021,06,29,16,44,28.90
2021,06,29,16,45,28.90
2021,06,29,16,46,28.90
2021,06,29,16,47,28.80
2021,06,29,16,48,28.60
2021,06,29,16,49,28.40
2021,06,29,16,50,28.30
2021,06,29,16,51,28.20
2021,06,29,16,52,28.00
2021,06,29,16,53,27.80
2021,06,29,16,54,27.70
2021,06,29,16,55,27.70
2021,06,29,16,56,27.70
2021,06,29,16,57,27.70
2021,06,29,16,58,27.80
2021,06,29,16,59,27.80
2021,06,29,17,00,27.80
2021,06,29,17,01,27.80
2021,06,29,17,02,27.90
2021,06,29,17,03,27.90
2021,06,29,17,04,27.80
2021,06,29,17,05,27.80
2021,06,29,17,06,27.80
2021,06,29,17,07,27.80
2021,06,29,17,08,27.80
2021,06,29,17,09,27.80
2021,06,29,17,10,27.80
2021,06,29,17,11,27.80
2021,06,29,17,12,27.80
2021,06,29,17,13,27.90
2021,06,29,17,14,27.90
2021,06,29,17,15,28.00
2021,06,29,17,16,28.10
2021,06,29,17,17,28.10
2021,06,29,17,18,28.20
2021,06,29,17,19,28.20